西村彗星

C/2023 P1 ( Nishimura )

English version
Home page
Updated on December 1, 2023

---------------------------------------------------------------------

・ プロフィール

発見日 2023年8月12日
発見光度 10.4等
発見者 西村栄男(静岡県掛川市)

・ 写真集

・ 軌道要素

Epoch 2023 Sept. 13.0 TT = JDT 2460200.5
T 2023 Sept. 17.64164 TT                                Rudenko
q   0.2251519            (2000.0)            P               Q
z  +0.0174593      Peri.  116.29890     +0.38229178     -0.62774686
 +/-0.0000119      Node    66.83403     -0.85524025     -0.51822609
e   0.9960690      Incl.  132.47732     +0.34988156     -0.58084043
>From 680 observations 2023 Jan. 19-Sept. 10, mean residual 0".7.

・ 星図

・ 光度変化

        m1 = 9.0 + 5 logΔ + 17.0 log r  [   ,-35]  (              〜2023年 8月13日)
        m1 = 9.0 + 5 logΔ + 10.0 log r  [-35, 35]  (2023年 8月13日〜2023年10月22日)
        m1 = 9.0 + 5 logΔ + 17.0 log r  [ 35,   ]  (2023年10月22日〜              )

---------------------------------------------------------------------

軌道要素はM.P.E.C. 2023-S260に掲載されたものです。
星図はステラナビゲータ Ver.11 (アストロアーツ) で作成したものです。
光度グラフはComet for Windowsで作成したものです。

---------------------------------------------------------------------

Copyright(C) Seiichi Yoshida (comet@aerith.net). All rights reserved.